Location: Oberstdorf
(47.4188°N, 10.2969°E)
Time: 08:59:10
(UTC+01:00)

ISS - Pass Details

Date: 13 November 2017
Orbit: 401 x 407 km, 51.6° (Epoch: 25 November)

Event Time Altitude Azimuth Distance (km) Brightness Sun altitude
Exits shadow 05:02:56 38° 60° (ENE) 629 -2.5 -23.2°
Drops below altitude 10° 05:05:19 10° 91° (E) 1,454 0.1 -22.8°
Sets 05:07:26 0° 97° (E) 2,312 1.5 -22.5°
